Powrót do katalogu

COSMOS 1275 DEB

AktywnyPO
NORAD 42175·DEBRIS·🇷🇺 Russia

Wystrzelony Jun 4, 1981 z Plesetsk Cosmodrome

Loading…

Następne Przeloty (najbliższe 24 godziny)

TLE

Starzejące sięSource: Space-Track

Epoka: Sep 4, 2026, 22:11 UTC

1 42175U 81053SP  26247.92484987  .00000079  00000-0  96603-4 0  9992
2 42175  83.0303 129.1124 0140251  10.6565 359.9821 13.49762301630062

Śledź COSMOS 1275 DEB w czasie rzeczywistym z AllMySat

Download on the App Store